Location: *
(45.0500°N, 12.0500°E)
Time: 18:56:34
(UTC+00:00)

Cosmos 2219 Rocket - Pass Details

Date: 09 April 2020
Orbit: 829 x 845 km, 71.0° (Epoch: 24 May)

Event Time Altitude Azimuth Distance (km) Brightness Sun altitude
Rises 22:27:41 0° 343° (NNW) 3,388 6.3 -36.0°
Reaches altitude 10° 22:30:58 10° 2° (N) 2,448 5.3 -36.1°
Maximum altitude 22:34:43 18° 44° (NE) 1,936 4.3 -36.2°
Enters shadow 22:34:52 18° 46° (NE) 1,937 4.3 -36.2°
